Time,TemperatureF,DewpointF,PressureIn,WindDirection,WindDirectionDegrees,WindSpeedMPH,WindSpeedGustMPH,Humidity,HourlyPrecipIn,Conditions,Clouds,dailyrainin,SoftwareType,DateUTC
2013-06-03 00:03:00,61.4,56.8,29.61,NW,311,4.0,8.0,85,0.00,,,0.00,Wunderground v.1.15,2013-06-03 05:03:00,
2013-06-03 00:08:00,61.3,56.8,29.61,NW,326,6.0,8.0,85,0.00,,,0.00,Wunderground v.1.15,2013-06-03 05:08:00,
2013-06-03 00:13:00,61.3,56.8,29.61,NW,316,4.0,5.0,85,0.00,,,0.00,Wunderground v.1.15,2013-06-03 05:13:00,
2013-06-03 00:19:00,61.3,56.8,29.61,NW,321,3.0,6.0,85,0.00,,,0.00,Wunderground v.1.15,2013-06-03 05:19:00,
2013-06-03 00:24:00,61.2,56.7,29.60,NNW,328,2.0,5.0,85,0.00,,,0.00,Wunderground v.1.15,2013-06-03 05:24:00,
2013-06-03 00:29:00,61.1,56.6,29.61,NNW,334,3.0,6.0,85,0.00,,,0.00,Wunderground v.1.15,2013-06-03 05:29:00,
2013-06-03 00:35:00,61.0,56.5,29.61,NNW,347,6.0,6.0,85,0.00,,,0.00,Wunderground v.1.15,2013-06-03 05:35:00,
2013-06-03 00:40:00,61.0,56.5,29.61,NW,322,4.0,4.0,85,0.00,,,0.00,Wunderground v.1.15,2013-06-03 05:40:00,
2013-06-03 00:46:00,61.0,56.5,29.61,NW,311,6.0,6.0,85,0.00,,,0.00,Wunderground v.1.15,2013-06-03 05:46:00,
2013-06-03 00:52:00,60.8,56.3,29.61,West,264,3.0,4.0,85,0.00,,,0.00,Wunderground v.1.15,2013-06-03 05:52:00,
2013-06-03 00:58:00,60.7,56.5,29.61,NW,317,4.0,5.0,86,0.00,,,0.00,Wunderground v.1.15,2013-06-03 05:58:00,
2013-06-03 01:03:00,60.6,56.4,29.60,NW,318,6.0,7.0,86,0.00,,,0.00,Wunderground v.1.15,2013-06-03 06:03:00,
2013-06-03 01:09:00,60.6,56.1,29.60,WNW,295,3.0,9.0,85,0.00,,,0.00,Wunderground v.1.15,2013-06-03 06:09:00,
2013-06-03 01:15:00,60.4,56.2,29.60,NW,309,3.0,6.0,86,0.00,,,0.00,Wunderground v.1.15,2013-06-03 06:15:00,
2013-06-03 01:20:00,60.3,56.1,29.60,NNW,329,4.0,4.0,86,0.00,,,0.00,Wunderground v.1.15,2013-06-03 06:20:00,
2013-06-03 01:26:00,60.2,56.0,29.60,WNW,301,4.0,4.0,86,0.00,,,0.00,Wunderground v.1.15,2013-06-03 06:26:00,
2013-06-03 01:31:00,60.1,55.9,29.60,NNW,331,4.0,4.0,86,0.00,,,0.00,Wunderground v.1.15,2013-06-03 06:31:00,
2013-06-03 01:36:00,60.1,55.9,29.60,NNW,334,4.0,5.0,86,0.00,,,0.00,Wunderground v.1.15,2013-06-03 06:36:00,
2013-06-03 01:42:00,60.0,55.8,29.60,NW,319,5.0,5.0,86,0.00,,,0.00,Wunderground v.1.15,2013-06-03 06:42:00,
2013-06-03 01:47:00,60.0,55.8,29.60,NNW,344,5.0,6.0,86,0.00,,,0.00,Wunderground v.1.15,2013-06-03 06:47:00,
2013-06-03 01:53:00,59.9,55.7,29.60,NNW,345,2.0,7.0,86,0.00,,,0.00,Wunderground v.1.15,2013-06-03 06:53:00,
2013-06-03 01:58:00,59.8,55.6,29.60,NW,313,5.0,7.0,86,0.00,,,0.00,Wunderground v.1.15,2013-06-03 06:58:00,
2013-06-03 02:03:00,59.7,55.5,29.60,NNW,334,4.0,6.0,86,0.00,,,0.00,Wunderground v.1.15,2013-06-03 07:03:00,
2013-06-03 02:08:00,59.7,55.5,29.59,NNW,346,7.0,7.0,86,0.00,,,0.00,Wunderground v.1.15,2013-06-03 07:08:00,
2013-06-03 02:13:00,59.6,55.7,29.59,North,3,3.0,6.0,87,0.00,,,0.00,Wunderground v.1.15,2013-06-03 07:13:00,
2013-06-03 02:18:00,59.5,55.6,29.59,NNW,337,4.0,7.0,87,0.00,,,0.00,Wunderground v.1.15,2013-06-03 07:18:00,
2013-06-03 02:23:00,59.5,55.6,29.59,NE,37,4.0,5.0,87,0.00,,,0.00,Wunderground v.1.15,2013-06-03 07:23:00,
2013-06-03 02:28:00,59.4,55.5,29.59,NNW,335,5.0,7.0,87,0.00,,,0.00,Wunderground v.1.15,2013-06-03 07:28:00,
2013-06-03 02:33:00,59.4,55.5,29.59,NW,325,3.0,6.0,87,0.00,,,0.00,Wunderground v.1.15,2013-06-03 07:33:00,
2013-06-03 02:38:00,59.3,55.4,29.59,NW,319,2.0,6.0,87,0.00,,,0.00,Wunderground v.1.15,2013-06-03 07:38:00,
2013-06-03 02:43:00,59.2,55.3,29.59,NNE,12,0.0,4.0,87,0.00,,,0.00,Wunderground v.1.15,2013-06-03 07:43:00,
2013-06-03 02:48:00,59.0,55.1,29.59,NW,326,4.0,7.0,87,0.00,,,0.00,Wunderground v.1.15,2013-06-03 07:48:00,
2013-06-03 02:53:00,59.0,55.1,29.59,WNW,293,5.0,7.0,87,0.00,,,0.00,Wunderground v.1.15,2013-06-03 07:53:00,
2013-06-03 02:58:00,58.9,55.0,29.59,NW,307,3.0,7.0,87,0.00,,,0.00,Wunderground v.1.15,2013-06-03 07:58:00,
2013-06-03 03:03:00,58.9,55.4,29.59,NW,323,4.0,5.0,88,0.00,,,0.00,Wunderground v.1.15,2013-06-03 08:03:00,
2013-06-03 03:08:00,58.8,55.3,29.59,NNW,331,3.0,6.0,88,0.00,,,0.00,Wunderground v.1.15,2013-06-03 08:08:00,
2013-06-03 03:13:00,58.8,55.3,29.59,NW,312,3.0,5.0,88,0.00,,,0.00,Wunderground v.1.15,2013-06-03 08:13:00,
2013-06-03 03:18:00,58.6,55.1,29.59,NW,309,3.0,6.0,88,0.00,,,0.00,Wunderground v.1.15,2013-06-03 08:18:00,
2013-06-03 03:23:00,58.5,55.3,29.59,North,10,4.0,5.0,89,0.00,,,0.00,Wunderground v.1.15,2013-06-03 08:23:00,
2013-06-03 03:28:00,58.4,55.2,29.59,NNW,332,1.0,6.0,89,0.00,,,0.00,Wunderground v.1.15,2013-06-03 08:28:00,
2013-06-03 03:33:00,58.2,55.0,29.59,North,349,2.0,4.0,89,0.00,,,0.00,Wunderground v.1.15,2013-06-03 08:33:00,
2013-06-03 03:38:00,58.2,55.0,29.59,WNW,298,3.0,5.0,89,0.00,,,0.00,Wunderground v.1.15,2013-06-03 08:38:00,
2013-06-03 03:43:00,58.1,54.9,29.60,WNW,294,0.0,4.0,89,0.00,,,0.00,Wunderground v.1.15,2013-06-03 08:43:00,
2013-06-03 03:48:00,58.0,54.8,29.59,NW,323,4.0,8.0,89,0.00,,,0.00,Wunderground v.1.15,2013-06-03 08:48:00,
2013-06-03 03:53:00,58.1,54.9,29.60,NNW,332,4.0,6.0,89,0.00,,,0.00,Wunderground v.1.15,2013-06-03 08:53:00,
2013-06-03 03:58:00,58.0,54.8,29.60,NW,308,2.0,6.0,89,0.00,,,0.00,Wunderground v.1.15,2013-06-03 08:58:00,
2013-06-03 04:03:00,58.0,55.1,29.60,NW,326,5.0,6.0,90,0.00,,,0.00,Wunderground v.1.15,2013-06-03 09:03:00,
2013-06-03 04:08:00,58.0,55.1,29.60,NW,319,2.0,7.0,90,0.00,,,0.00,Wunderground v.1.15,2013-06-03 09:08:00,
2013-06-03 04:13:00,57.9,54.7,29.60,NW,309,4.0,6.0,89,0.00,,,0.00,Wunderground v.1.15,2013-06-03 09:13:00,
2013-06-03 04:18:00,57.8,54.9,29.60,NW,316,5.0,7.0,90,0.00,,,0.00,Wunderground v.1.15,2013-06-03 09:18:00,
2013-06-03 04:23:00,57.6,54.7,29.60,NW,317,3.0,4.0,90,0.00,,,0.00,Wunderground v.1.15,2013-06-03 09:23:00,
2013-06-03 04:28:00,57.4,54.5,29.60,NNW,332,3.0,8.0,90,0.00,,,0.00,Wunderground v.1.15,2013-06-03 09:28:00,
2013-06-03 04:33:00,57.3,54.4,29.61,North,1,4.0,7.0,90,0.00,,,0.00,Wunderground v.1.15,2013-06-03 09:33:00,
2013-06-03 04:38:00,57.2,54.3,29.61,NE,50,5.0,8.0,90,0.00,,,0.00,Wunderground v.1.15,2013-06-03 09:38:00,
2013-06-03 04:43:00,57.1,54.5,29.61,ENE,77,3.0,6.0,91,0.00,,,0.00,Wunderground v.1.15,2013-06-03 09:43:00,
2013-06-03 04:48:00,57.0,54.4,29.61,NNE,26,0.0,6.0,91,0.00,,,0.00,Wunderground v.1.15,2013-06-03 09:48:00,
2013-06-03 04:53:00,56.9,54.3,29.61,NNE,14,2.0,4.0,91,0.00,,,0.00,Wunderground v.1.15,2013-06-03 09:53:00,
2013-06-03 04:58:00,56.8,54.2,29.61,NNW,346,2.0,5.0,91,0.00,,,0.00,Wunderground v.1.15,2013-06-03 09:58:00,
2013-06-03 05:04:00,56.7,54.4,29.62,NW,314,3.0,6.0,92,0.00,,,0.00,Wunderground v.1.15,2013-06-03 10:04:00,
2013-06-03 05:09:00,56.6,54.3,29.62,NNW,329,2.0,6.0,92,0.00,,,0.00,Wunderground v.1.15,2013-06-03 10:09:00,
2013-06-03 05:14:00,56.5,54.2,29.62,NW,304,0.0,6.0,92,0.00,,,0.00,Wunderground v.1.15,2013-06-03 10:14:00,
2013-06-03 05:19:00,56.4,54.1,29.62,NW,307,0.0,6.0,92,0.00,,,0.00,Wunderground v.1.15,2013-06-03 10:19:00,
2013-06-03 05:24:00,56.3,54.0,29.63,WNW,297,0.0,4.0,92,0.00,,,0.00,Wunderground v.1.15,2013-06-03 10:24:00,
2013-06-03 05:29:00,56.3,54.0,29.63,NNW,335,0.0,4.0,92,0.00,,,0.00,Wunderground v.1.15,2013-06-03 10:29:00,
2013-06-03 05:34:00,56.4,54.1,29.64,West,278,1.0,7.0,92,0.00,,,0.00,Wunderground v.1.15,2013-06-03 10:34:00,
2013-06-03 05:39:00,56.5,53.9,29.64,NNE,15,6.0,7.0,91,0.00,,,0.00,Wunderground v.1.15,2013-06-03 10:39:00,
2013-06-03 05:44:00,56.7,54.1,29.64,NW,316,5.0,8.0,91,0.00,,,0.00,Wunderground v.1.15,2013-06-03 10:44:00,
2013-06-03 05:49:00,56.8,54.2,29.64,WNW,297,3.0,8.0,91,0.00,,,0.00,Wunderground v.1.15,2013-06-03 10:49:00,
2013-06-03 05:54:00,56.8,54.2,29.64,NNW,329,3.0,5.0,91,0.00,,,0.00,Wunderground v.1.15,2013-06-03 10:54:00,
2013-06-03 05:59:00,56.9,54.3,29.64,WNW,297,2.0,5.0,91,0.00,,,0.00,Wunderground v.1.15,2013-06-03 10:59:00,
2013-06-03 06:04:00,56.9,54.3,29.65,NW,320,5.0,5.0,91,0.00,,,0.00,Wunderground v.1.15,2013-06-03 11:04:00,
2013-06-03 06:09:00,56.9,54.3,29.65,NNW,344,2.0,5.0,91,0.00,,,0.00,Wunderground v.1.15,2013-06-03 11:09:00,
2013-06-03 06:14:00,57.0,54.1,29.64,NNE,20,3.0,6.0,90,0.00,,,0.00,Wunderground v.1.15,2013-06-03 11:14:00,
2013-06-03 06:19:00,57.0,54.4,29.64,North,358,3.0,6.0,91,0.00,,,0.00,Wunderground v.1.15,2013-06-03 11:19:00,
2013-06-03 06:24:00,56.9,54.0,29.64,North,8,3.0,6.0,90,0.00,,,0.00,Wunderground v.1.15,2013-06-03 11:24:00,
2013-06-03 06:29:00,56.8,54.2,29.64,NW,312,2.0,6.0,91,0.00,,,0.00,Wunderground v.1.15,2013-06-03 11:29:00,
2013-06-03 06:34:00,56.8,54.2,29.64,West,263,6.0,6.0,91,0.00,,,0.00,Wunderground v.1.15,2013-06-03 11:34:00,
2013-06-03 06:39:00,56.8,54.2,29.65,NNW,337,2.0,6.0,91,0.00,,,0.00,Wunderground v.1.15,2013-06-03 11:39:00,
2013-06-03 06:44:00,57.2,54.6,29.64,NE,37,5.0,5.0,91,0.00,,,0.00,Wunderground v.1.15,2013-06-03 11:44:00,
2013-06-03 06:49:00,57.6,54.7,29.64,NNW,340,1.0,5.0,90,0.00,,,0.00,Wunderground v.1.15,2013-06-03 11:49:00,
2013-06-03 06:54:00,57.6,54.4,29.65,NNW,335,3.0,6.0,89,0.00,,,0.00,Wunderground v.1.15,2013-06-03 11:54:00,
2013-06-03 06:59:00,57.6,54.7,29.66,NW,311,5.0,7.0,90,0.00,,,0.00,Wunderground v.1.15,2013-06-03 11:59:00,
2013-06-03 07:04:00,57.5,54.6,29.66,WNW,295,0.0,3.0,90,0.00,,,0.00,Wunderground v.1.15,2013-06-03 12:04:00,
2013-06-03 07:09:00,57.8,54.6,29.66,WNW,298,2.0,3.0,89,0.00,,,0.00,Wunderground v.1.15,2013-06-03 12:09:00,
2013-06-03 07:14:00,57.7,54.5,29.66,West,262,2.0,5.0,89,0.00,,,0.00,Wunderground v.1.15,2013-06-03 12:14:00,
2013-06-03 07:19:00,57.9,54.7,29.66,NNW,328,3.0,5.0,89,0.00,,,0.00,Wunderground v.1.15,2013-06-03 12:19:00,
2013-06-03 07:24:00,58.4,55.2,29.67,NW,314,5.0,6.0,89,0.00,,,0.00,Wunderground v.1.15,2013-06-03 12:24:00,
2013-06-03 07:29:00,58.4,54.9,29.67,WNW,302,3.0,8.0,88,0.00,,,0.00,Wunderground v.1.15,2013-06-03 12:29:00,
2013-06-03 07:34:00,58.5,55.0,29.67,NW,314,5.0,6.0,88,0.00,,,0.00,Wunderground v.1.15,2013-06-03 12:34:00,
2013-06-03 07:39:00,58.5,55.0,29.67,NNW,329,4.0,7.0,88,0.00,,,0.00,Wunderground v.1.15,2013-06-03 12:39:00,
2013-06-03 07:44:00,58.5,55.0,29.67,North,7,4.0,6.0,88,0.00,,,0.00,Wunderground v.1.15,2013-06-03 12:44:00,
2013-06-03 07:49:00,58.5,55.0,29.67,NW,313,4.0,9.0,88,0.00,,,0.00,Wunderground v.1.15,2013-06-03 12:49:00,
2013-06-03 07:54:00,58.3,55.1,29.67,North,353,7.0,9.0,89,0.00,,,0.00,Wunderground v.1.15,2013-06-03 12:54:00,
2013-06-03 07:59:00,58.4,54.9,29.68,NW,312,4.0,10.0,88,0.00,,,0.00,Wunderground v.1.15,2013-06-03 12:59:00,
2013-06-03 08:04:00,58.7,55.2,29.68,NNE,12,6.0,6.0,88,0.00,,,0.00,Wunderground v.1.15,2013-06-03 13:04:00,
2013-06-03 08:09:00,58.8,55.3,29.68,NNW,337,7.0,8.0,88,0.00,,,0.00,Wunderground v.1.15,2013-06-03 13:09:00,
2013-06-03 08:14:00,58.9,55.7,29.68,NNW,337,2.0,6.0,89,0.00,,,0.00,Wunderground v.1.15,2013-06-03 13:14:00,
2013-06-03 08:19:00,59.0,55.4,29.68,NNW,329,5.0,9.0,88,0.00,,,0.00,Wunderground v.1.15,2013-06-03 13:19:00,
2013-06-03 08:24:00,59.2,55.3,29.69,North,354,3.0,6.0,87,0.00,,,0.00,Wunderground v.1.15,2013-06-03 13:24:00,
2013-06-03 08:30:00,59.5,55.6,29.69,NW,305,4.0,4.0,87,0.00,,,0.00,Wunderground v.1.15,2013-06-03 13:30:00,
2013-06-03 08:35:00,59.7,55.8,29.69,North,5,4.0,7.0,87,0.00,,,0.00,Wunderground v.1.15,2013-06-03 13:35:00,
2013-06-03 08:40:00,59.9,55.7,29.69,NNE,32,4.0,4.0,86,0.00,,,0.00,Wunderground v.1.15,2013-06-03 13:40:00,
2013-06-03 08:45:00,60.5,56.3,29.69,NW,321,6.0,8.0,86,0.00,,,0.00,Wunderground v.1.15,2013-06-03 13:45:00,
2013-06-03 08:50:00,60.5,55.6,29.69,NNW,327,3.0,5.0,84,0.00,,,0.00,Wunderground v.1.15,2013-06-03 13:50:00,
2013-06-03 08:55:00,60.4,55.5,29.70,SSW,201,3.0,8.0,84,0.00,,,0.00,Wunderground v.1.15,2013-06-03 13:55:00,
2013-06-03 09:00:00,60.5,55.6,29.69,NW,315,3.0,4.0,84,0.00,,,0.00,Wunderground v.1.15,2013-06-03 14:00:00,
2013-06-03 09:05:00,60.7,56.2,29.69,North,352,2.0,6.0,85,0.00,,,0.00,Wunderground v.1.15,2013-06-03 14:05:00,
2013-06-03 09:10:00,61.0,55.8,29.69,West,279,4.0,4.0,83,0.00,,,0.00,Wunderground v.1.15,2013-06-03 14:10:00,
2013-06-03 09:15:00,60.7,55.8,29.69,NW,313,3.0,7.0,84,0.00,,,0.00,Wunderground v.1.15,2013-06-03 14:15:00,
2013-06-03 09:20:00,60.7,55.8,29.68,East,82,1.0,4.0,84,0.00,,,0.00,Wunderground v.1.15,2013-06-03 14:20:00,
2013-06-03 09:25:00,61.0,55.8,29.68,NW,316,4.0,7.0,83,0.00,,,0.00,Wunderground v.1.15,2013-06-03 14:25:00,
2013-06-03 09:30:00,61.3,56.1,29.68,NW,317,4.0,5.0,83,0.00,,,0.00,Wunderground v.1.15,2013-06-03 14:30:00,
2013-06-03 09:35:00,62.1,56.9,29.67,NNE,27,5.0,7.0,83,0.00,,,0.00,Wunderground v.1.15,2013-06-03 14:35:00,
2013-06-03 09:40:00,62.1,55.9,29.67,NNW,331,1.0,4.0,80,0.00,,,0.00,Wunderground v.1.15,2013-06-03 14:40:00,
2013-06-03 09:45:00,62.0,55.4,29.68,NNW,340,2.0,7.0,79,0.00,,,0.00,Wunderground v.1.15,2013-06-03 14:45:00,
2013-06-03 09:50:00,62.5,55.9,29.67,NW,319,2.0,5.0,79,0.00,,,0.00,Wunderground v.1.15,2013-06-03 14:50:00,
2013-06-03 09:55:00,62.4,55.8,29.67,NNE,15,6.0,6.0,79,0.00,,,0.00,Wunderground v.1.15,2013-06-03 14:55:00,
2013-06-03 10:00:00,63.3,56.0,29.67,NNW,327,4.0,4.0,77,0.00,,,0.00,Wunderground v.1.15,2013-06-03 15:00:00,
2013-06-03 10:05:00,63.1,55.4,29.67,NE,39,5.0,7.0,76,0.00,,,0.00,Wunderground v.1.15,2013-06-03 15:05:00,
2013-06-03 10:10:00,62.9,55.6,29.67,ENE,60,3.0,5.0,77,0.00,,,0.00,Wunderground v.1.15,2013-06-03 15:10:00,
2013-06-03 10:15:00,63.5,55.8,29.67,NE,46,4.0,7.0,76,0.00,,,0.00,Wunderground v.1.15,2013-06-03 15:15:00,
2013-06-03 10:20:00,63.6,55.5,29.66,ENE,74,2.0,3.0,75,0.00,,,0.00,Wunderground v.1.15,2013-06-03 15:20:00,
2013-06-03 10:25:00,63.9,56.2,29.67,North,355,6.0,7.0,76,0.00,,,0.00,Wunderground v.1.15,2013-06-03 15:25:00,
2013-06-03 10:30:00,64.2,55.7,29.67,NW,314,3.0,5.0,74,0.00,,,0.00,Wunderground v.1.15,2013-06-03 15:30:00,
2013-06-03 10:35:00,64.4,54.8,29.67,NE,54,2.0,5.0,71,0.00,,,0.00,Wunderground v.1.15,2013-06-03 15:35:00,
2013-06-03 10:40:00,64.4,55.2,29.67,NE,56,2.0,4.0,72,0.00,,,0.00,Wunderground v.1.15,2013-06-03 15:40:00,
2013-06-03 10:45:00,64.5,55.3,29.67,NNE,13,3.0,6.0,72,0.00,,,0.00,Wunderground v.1.15,2013-06-03 15:45:00,
2013-06-03 10:50:00,64.7,55.5,29.67,NNW,329,4.0,5.0,72,0.00,,,0.00,Wunderground v.1.15,2013-06-03 15:50:00,
2013-06-03 10:55:00,64.8,55.2,29.67,NNE,32,4.0,5.0,71,0.00,,,0.00,Wunderground v.1.15,2013-06-03 15:55:00,
2013-06-03 11:00:00,65.0,54.6,29.67,NNW,342,2.0,4.0,69,0.00,,,0.00,Wunderground v.1.15,2013-06-03 16:00:00,
2013-06-03 11:05:00,64.8,54.8,29.66,North,8,2.0,9.0,70,0.00,,,0.00,Wunderground v.1.15,2013-06-03 16:05:00,
2013-06-03 11:10:00,65.3,54.9,29.66,ENE,72,0.0,2.0,69,0.00,,,0.00,Wunderground v.1.15,2013-06-03 16:10:00,
2013-06-03 11:15:00,65.8,55.3,29.67,NE,52,5.0,5.0,69,0.00,,,0.00,Wunderground v.1.15,2013-06-03 16:15:00,
2013-06-03 11:20:00,65.8,55.3,29.66,North,359,2.0,2.0,69,0.00,,,0.00,Wunderground v.1.15,2013-06-03 16:20:00,
2013-06-03 11:25:00,65.7,55.2,29.66,NE,35,2.0,5.0,69,0.00,,,0.00,Wunderground v.1.15,2013-06-03 16:25:00,
2013-06-03 11:30:00,65.6,55.5,29.66,NE,52,3.0,3.0,70,0.00,,,0.00,Wunderground v.1.15,2013-06-03 16:30:00,
2013-06-03 11:35:00,65.9,54.6,29.66,North,359,2.0,4.0,67,0.00,,,0.00,Wunderground v.1.15,2013-06-03 16:35:00,
2013-06-03 11:40:00,66.7,54.6,29.66,North,1,3.0,5.0,65,0.00,,,0.00,Wunderground v.1.15,2013-06-03 16:40:00,
2013-06-03 11:45:00,66.9,55.2,29.66,NNE,23,4.0,6.0,66,0.00,,,0.00,Wunderground v.1.15,2013-06-03 16:45:00,
2013-06-03 11:50:00,66.2,55.3,29.66,NNE,23,2.0,3.0,68,0.00,,,0.00,Wunderground v.1.15,2013-06-03 16:50:00,
2013-06-03 11:55:00,66.4,55.1,29.66,NNE,22,5.0,8.0,67,0.00,,,0.00,Wunderground v.1.15,2013-06-03 16:55:00,
2013-06-03 12:00:00,66.4,54.3,29.66,WNW,302,4.0,8.0,65,0.00,,,0.00,Wunderground v.1.15,2013-06-03 17:00:00,
2013-06-03 12:05:00,67.2,55.5,29.66,North,6,3.0,8.0,66,0.00,,,0.00,Wunderground v.1.15,2013-06-03 17:05:00,
2013-06-03 12:10:00,67.6,55.0,29.66,NW,311,5.0,7.0,64,0.00,,,0.00,Wunderground v.1.15,2013-06-03 17:10:00,
2013-06-03 12:16:00,67.7,54.6,29.66,NNE,18,7.0,8.0,63,0.00,,,0.00,Wunderground v.1.15,2013-06-03 17:16:00,
2013-06-03 12:21:00,67.5,54.5,29.66,NNW,347,6.0,6.0,63,0.00,,,0.00,Wunderground v.1.15,2013-06-03 17:21:00,
2013-06-03 12:26:00,67.3,54.7,29.66,NW,311,5.0,6.0,64,0.00,,,0.00,Wunderground v.1.15,2013-06-03 17:26:00,
2013-06-03 12:31:00,67.8,53.4,29.66,WNW,285,5.0,7.0,60,0.00,,,0.00,Wunderground v.1.15,2013-06-03 17:31:00,
2013-06-03 12:36:00,67.9,54.4,29.66,NNE,14,4.0,7.0,62,0.00,,,0.00,Wunderground v.1.15,2013-06-03 17:36:00,
2013-06-03 12:41:00,67.8,54.3,29.66,NW,312,4.0,9.0,62,0.00,,,0.00,Wunderground v.1.15,2013-06-03 17:41:00,
2013-06-03 12:46:00,67.7,54.2,29.65,NW,304,3.0,10.0,62,0.00,,,0.00,Wunderground v.1.15,2013-06-03 17:46:00,
2013-06-03 12:51:00,67.7,54.6,29.66,NW,313,6.0,12.0,63,0.00,,,0.00,Wunderground v.1.15,2013-06-03 17:51:00,
2013-06-03 12:56:00,66.9,53.9,29.65,North,353,6.0,12.0,63,0.00,,,0.00,Wunderground v.1.15,2013-06-03 17:56:00,
2013-06-03 13:01:00,66.9,54.3,29.65,NNW,345,3.0,7.0,64,0.00,,,0.00,Wunderground v.1.15,2013-06-03 18:01:00,
2013-06-03 13:06:00,67.6,54.1,29.65,NW,322,4.0,9.0,62,0.00,,,0.00,Wunderground v.1.15,2013-06-03 18:06:00,
2013-06-03 13:11:00,67.5,53.6,29.65,NW,313,4.0,8.0,61,0.00,,,0.00,Wunderground v.1.15,2013-06-03 18:11:00,
2013-06-03 13:16:00,67.6,54.1,29.65,North,359,3.0,8.0,62,0.00,,,0.00,Wunderground v.1.15,2013-06-03 18:16:00,
2013-06-03 13:21:00,68.0,53.1,29.65,NW,322,4.0,10.0,59,0.00,,,0.00,Wunderground v.1.15,2013-06-03 18:21:00,
2013-06-03 13:26:00,68.2,54.2,29.65,NNE,13,10.0,10.0,61,0.00,,,0.00,Wunderground v.1.15,2013-06-03 18:26:00,
2013-06-03 13:31:00,67.8,53.9,29.65,NNW,347,10.0,11.0,61,0.00,,,0.00,Wunderground v.1.15,2013-06-03 18:31:00,
2013-06-03 13:36:00,67.8,54.3,29.64,NW,314,5.0,11.0,62,0.00,,,0.00,Wunderground v.1.15,2013-06-03 18:36:00,
2013-06-03 13:41:00,68.2,53.8,29.64,NNE,32,1.0,5.0,60,0.00,,,0.00,Wunderground v.1.15,2013-06-03 18:41:00,
2013-06-03 13:46:00,68.2,53.8,29.64,North,354,4.0,10.0,60,0.00,,,0.00,Wunderground v.1.15,2013-06-03 18:46:00,
2013-06-03 13:51:00,68.0,54.0,29.64,North,5,2.0,6.0,61,0.00,,,0.00,Wunderground v.1.15,2013-06-03 18:51:00,
2013-06-03 13:56:00,68.0,54.5,29.63,North,4,4.0,7.0,62,0.00,,,0.00,Wunderground v.1.15,2013-06-03 18:56:00,
2013-06-03 14:01:00,68.3,54.3,29.63,NW,321,3.0,7.0,61,0.00,,,0.00,Wunderground v.1.15,2013-06-03 19:01:00,
2013-06-03 14:06:00,68.7,53.3,29.63,NW,319,6.0,9.0,58,0.00,,,0.00,Wunderground v.1.15,2013-06-03 19:06:00,
2013-06-03 14:11:00,68.5,53.1,29.63,NE,44,4.0,6.0,58,0.00,,,0.00,Wunderground v.1.15,2013-06-03 19:11:00,
2013-06-03 14:16:00,68.4,53.5,29.63,NNE,26,5.0,7.0,59,0.00,,,0.00,Wunderground v.1.15,2013-06-03 19:16:00,
2013-06-03 14:21:00,68.7,53.8,29.62,ENE,58,2.0,4.0,59,0.00,,,0.00,Wunderground v.1.15,2013-06-03 19:21:00,
2013-06-03 14:26:00,69.0,54.1,29.63,NNE,14,4.0,5.0,59,0.00,,,0.00,Wunderground v.1.15,2013-06-03 19:26:00,
2013-06-03 14:31:00,69.1,54.2,29.63,NE,39,3.0,5.0,59,0.00,,,0.00,Wunderground v.1.15,2013-06-03 19:31:00,
2013-06-03 14:36:00,68.9,54.0,29.63,North,349,5.0,10.0,59,0.00,,,0.00,Wunderground v.1.15,2013-06-03 19:36:00,
2013-06-03 14:41:00,68.8,53.9,29.63,NW,324,4.0,6.0,59,0.00,,,0.00,Wunderground v.1.15,2013-06-03 19:41:00,
2013-06-03 14:46:00,68.8,52.9,29.63,NW,314,4.0,6.0,57,0.00,,,0.00,Wunderground v.1.15,2013-06-03 19:46:00,
2013-06-03 14:51:00,69.4,54.4,29.62,NNE,28,7.0,7.0,59,0.00,,,0.00,Wunderground v.1.15,2013-06-03 19:51:00,
2013-06-03 14:56:00,68.8,53.4,29.62,NNW,344,2.0,7.0,58,0.00,,,0.00,Wunderground v.1.15,2013-06-03 19:56:00,
2013-06-03 15:01:00,68.8,52.9,29.62,NNE,12,2.0,4.0,57,0.00,,,0.00,Wunderground v.1.15,2013-06-03 20:01:00,
2013-06-03 15:06:00,68.6,53.7,29.62,NE,39,2.0,6.0,59,0.00,,,0.00,Wunderground v.1.15,2013-06-03 20:06:00,
2013-06-03 15:11:00,68.9,53.5,29.62,NNE,23,6.0,6.0,58,0.00,,,0.00,Wunderground v.1.15,2013-06-03 20:11:00,
2013-06-03 15:16:00,69.6,52.7,29.61,NNW,333,6.0,9.0,55,0.00,,,0.00,Wunderground v.1.15,2013-06-03 20:16:00,
2013-06-03 15:21:00,70.0,54.1,29.61,NW,309,2.0,7.0,57,0.00,,,0.00,Wunderground v.1.15,2013-06-03 20:21:00,
2013-06-03 15:26:00,70.2,54.7,29.61,NE,42,5.0,8.0,58,0.00,,,0.00,Wunderground v.1.15,2013-06-03 20:26:00,
2013-06-03 15:31:00,70.0,54.5,29.61,NW,324,6.0,6.0,58,0.00,,,0.00,Wunderground v.1.15,2013-06-03 20:31:00,
2013-06-03 15:36:00,70.3,54.3,29.61,North,4,6.0,7.0,57,0.00,,,0.00,Wunderground v.1.15,2013-06-03 20:36:00,
2013-06-03 15:41:00,70.6,55.1,29.61,North,5,4.0,7.0,58,0.00,,,0.00,Wunderground v.1.15,2013-06-03 20:41:00,
2013-06-03 15:46:00,70.8,54.3,29.60,NNW,345,7.0,9.0,56,0.00,,,0.00,Wunderground v.1.15,2013-06-03 20:46:00,
2013-06-03 15:51:00,70.7,53.7,29.60,NW,316,4.0,9.0,55,0.00,,,0.00,Wunderground v.1.15,2013-06-03 20:51:00,
2013-06-03 15:56:00,70.4,54.9,29.60,NNW,334,5.0,9.0,58,0.00,,,0.00,Wunderground v.1.15,2013-06-03 20:56:00,
2013-06-03 16:01:00,70.6,54.1,29.60,North,359,7.0,8.0,56,0.00,,,0.00,Wunderground v.1.15,2013-06-03 21:01:00,
2013-06-03 16:06:00,69.9,53.5,29.60,WNW,283,3.0,8.0,56,0.00,,,0.00,Wunderground v.1.15,2013-06-03 21:06:00,
2013-06-03 16:11:00,69.5,54.1,29.60,NNW,331,2.0,7.0,58,0.00,,,0.00,Wunderground v.1.15,2013-06-03 21:11:00,
2013-06-03 16:17:00,69.8,53.9,29.60,East,96,0.0,7.0,57,0.00,,,0.00,Wunderground v.1.15,2013-06-03 21:17:00,
2013-06-03 16:22:00,70.3,53.4,29.60,NNW,333,4.0,7.0,55,0.00,,,0.00,Wunderground v.1.15,2013-06-03 21:22:00,
2013-06-03 16:27:00,70.0,53.6,29.60,NNW,338,2.0,7.0,56,0.00,,,0.00,Wunderground v.1.15,2013-06-03 21:27:00,
2013-06-03 16:32:00,70.3,53.9,29.60,North,8,2.0,4.0,56,0.00,,,0.00,Wunderground v.1.15,2013-06-03 21:32:00,
2013-06-03 16:37:00,70.0,52.6,29.60,NE,43,1.0,6.0,54,0.00,,,0.00,Wunderground v.1.15,2013-06-03 21:37:00,
2013-06-03 16:42:00,70.1,53.7,29.60,NNW,332,3.0,6.0,56,0.00,,,0.00,Wunderground v.1.15,2013-06-03 21:42:00,
2013-06-03 16:47:00,69.9,53.0,29.60,NNW,335,4.0,6.0,55,0.00,,,0.00,Wunderground v.1.15,2013-06-03 21:47:00,
2013-06-03 16:52:00,69.7,53.8,29.60,NW,324,4.0,4.0,57,0.00,,,0.00,Wunderground v.1.15,2013-06-03 21:52:00,
2013-06-03 16:57:00,69.2,52.8,29.60,NW,314,3.0,5.0,56,0.00,,,0.00,Wunderground v.1.15,2013-06-03 21:57:00,
2013-06-03 17:02:00,69.2,52.8,29.60,NNW,335,1.0,4.0,56,0.00,,,0.00,Wunderground v.1.15,2013-06-03 22:02:00,
2013-06-03 17:07:00,69.1,53.2,29.60,NNW,345,3.0,5.0,57,0.00,,,0.00,Wunderground v.1.15,2013-06-03 22:07:00,
2013-06-03 17:12:00,69.3,52.9,29.60,NNW,330,2.0,4.0,56,0.00,,,0.00,Wunderground v.1.15,2013-06-03 22:12:00,
2013-06-03 17:17:00,69.2,53.3,29.60,NNE,18,3.0,5.0,57,0.00,,,0.00,Wunderground v.1.15,2013-06-03 22:17:00,
2013-06-03 17:22:00,69.2,53.8,29.60,NE,40,2.0,6.0,58,0.00,,,0.00,Wunderground v.1.15,2013-06-03 22:22:00,
2013-06-03 17:27:00,69.6,54.2,29.60,NE,44,3.0,6.0,58,0.00,,,0.00,Wunderground v.1.15,2013-06-03 22:27:00,
2013-06-03 17:32:00,69.8,54.4,29.60,NW,305,4.0,6.0,58,0.00,,,0.00,Wunderground v.1.15,2013-06-03 22:32:00,
2013-06-03 17:37:00,69.7,53.3,29.60,NNW,328,7.0,8.0,56,0.00,,,0.00,Wunderground v.1.15,2013-06-03 22:37:00,
2013-06-03 17:42:00,69.9,54.0,29.60,ENE,60,3.0,6.0,57,0.00,,,0.00,Wunderground v.1.15,2013-06-03 22:42:00,
2013-06-03 17:47:00,69.4,53.5,29.59,NE,34,5.0,8.0,57,0.00,,,0.00,Wunderground v.1.15,2013-06-03 22:47:00,
2013-06-03 17:52:00,69.3,53.4,29.60,NNE,28,5.0,7.0,57,0.00,,,0.00,Wunderground v.1.15,2013-06-03 22:52:00,
2013-06-03 17:57:00,69.1,53.2,29.59,North,360,4.0,7.0,57,0.00,,,0.00,Wunderground v.1.15,2013-06-03 22:57:00,
2013-06-03 18:02:00,69.3,53.4,29.59,NW,305,7.0,8.0,57,0.00,,,0.00,Wunderground v.1.15,2013-06-03 23:02:00,
2013-06-03 18:07:00,69.4,53.0,29.59,NE,56,3.0,8.0,56,0.00,,,0.00,Wunderground v.1.15,2013-06-03 23:07:00,
2013-06-03 18:12:00,69.4,54.0,29.59,NW,316,2.0,5.0,58,0.00,,,0.00,Wunderground v.1.15,2013-06-03 23:12:00,
2013-06-03 18:17:00,69.8,53.9,29.59,NW,321,4.0,6.0,57,0.00,,,0.00,Wunderground v.1.15,2013-06-03 23:17:00,
2013-06-03 18:22:00,69.3,53.4,29.59,North,360,4.0,5.0,57,0.00,,,0.00,Wunderground v.1.15,2013-06-03 23:22:00,
2013-06-03 18:27:00,69.0,53.6,29.59,NW,311,3.0,5.0,58,0.00,,,0.00,Wunderground v.1.15,2013-06-03 23:27:00,
2013-06-03 18:32:00,69.2,53.8,29.60,NNE,32,2.0,7.0,58,0.00,,,0.00,Wunderground v.1.15,2013-06-03 23:32:00,
2013-06-03 18:37:00,69.2,53.8,29.59,NW,324,3.0,7.0,58,0.00,,,0.00,Wunderground v.1.15,2013-06-03 23:37:00,
2013-06-03 18:42:00,69.2,53.8,29.59,North,358,4.0,6.0,58,0.00,,,0.00,Wunderground v.1.15,2013-06-03 23:42:00,
2013-06-03 18:47:00,68.7,53.3,29.59,NNE,27,3.0,7.0,58,0.00,,,0.00,Wunderground v.1.15,2013-06-03 23:47:00,
2013-06-03 18:52:00,68.2,52.9,29.59,NNE,20,4.0,6.0,58,0.00,,,0.00,Wunderground v.1.15,2013-06-03 23:52:00,
2013-06-03 18:57:00,68.0,53.6,29.59,NE,36,5.0,7.0,60,0.00,,,0.00,Wunderground v.1.15,2013-06-03 23:57:00,
2013-06-03 19:02:00,68.0,53.6,29.59,North,6,5.0,7.0,60,0.00,,,0.00,Wunderground v.1.15,2013-06-04 00:02:00,
2013-06-03 19:07:00,68.0,53.6,29.60,NE,50,5.0,7.0,60,0.00,,,0.00,Wunderground v.1.15,2013-06-04 00:07:00,
2013-06-03 19:12:00,68.0,53.6,29.60,NNE,20,5.0,6.0,60,0.00,,,0.00,Wunderground v.1.15,2013-06-04 00:12:00,
2013-06-03 19:17:00,67.8,53.4,29.60,North,356,6.0,7.0,60,0.00,,,0.00,Wunderground v.1.15,2013-06-04 00:17:00,
2013-06-03 19:22:00,67.7,53.8,29.60,NW,324,2.0,5.0,61,0.00,,,0.00,Wunderground v.1.15,2013-06-04 00:22:00,
2013-06-03 19:27:00,67.7,53.8,29.60,NNE,28,5.0,7.0,61,0.00,,,0.00,Wunderground v.1.15,2013-06-04 00:27:00,
2013-06-03 19:32:00,67.4,53.5,29.60,NE,41,5.0,7.0,61,0.00,,,0.00,Wunderground v.1.15,2013-06-04 00:32:00,
2013-06-03 19:37:00,67.2,53.7,29.61,NNE,32,3.0,7.0,62,0.00,,,0.00,Wunderground v.1.15,2013-06-04 00:37:00,
2013-06-03 19:42:00,67.2,54.2,29.61,NNE,18,2.0,6.0,63,0.00,,,0.00,Wunderground v.1.15,2013-06-04 00:42:00,
2013-06-03 19:47:00,66.9,53.9,29.61,NNW,342,3.0,6.0,63,0.00,,,0.00,Wunderground v.1.15,2013-06-04 00:47:00,
2013-06-03 19:52:00,66.6,54.5,29.61,NNE,16,2.0,5.0,65,0.00,,,0.00,Wunderground v.1.15,2013-06-04 00:52:00,
2013-06-03 19:57:00,66.3,54.6,29.61,NNE,23,2.0,5.0,66,0.00,,,0.00,Wunderground v.1.15,2013-06-04 00:57:00,
2013-06-03 20:02:00,66.1,54.8,29.61,North,355,1.0,5.0,67,0.00,,,0.00,Wunderground v.1.15,2013-06-04 01:02:00,
2013-06-03 20:07:00,65.9,54.6,29.61,NE,44,8.0,8.0,67,0.00,,,0.00,Wunderground v.1.15,2013-06-04 01:07:00,
2013-06-03 20:12:00,65.6,54.3,29.61,NNW,332,4.0,4.0,67,0.00,,,0.00,Wunderground v.1.15,2013-06-04 01:12:00,
2013-06-03 20:18:00,65.5,54.7,29.61,NNE,14,3.0,7.0,68,0.00,,,0.00,Wunderground v.1.15,2013-06-04 01:18:00,
2013-06-03 20:23:00,65.4,54.6,29.61,North,1,5.0,6.0,68,0.00,,,0.00,Wunderground v.1.15,2013-06-04 01:23:00,
2013-06-03 20:28:00,65.2,54.4,29.61,NNW,345,3.0,7.0,68,0.00,,,0.00,Wunderground v.1.15,2013-06-04 01:28:00,
2013-06-03 20:33:00,65.0,54.6,29.61,NNE,29,3.0,6.0,69,0.00,,,0.00,Wunderground v.1.15,2013-06-04 01:33:00,
2013-06-03 20:38:00,64.8,54.4,29.61,NNE,32,2.0,6.0,69,0.00,,,0.00,Wunderground v.1.15,2013-06-04 01:38:00,
2013-06-03 20:42:00,64.5,54.5,29.62,North,5,2.0,9.0,70,0.00,,,0.00,Wunderground v.1.15,2013-06-04 01:42:00,
2013-06-03 20:47:00,64.3,54.3,29.62,NE,49,6.0,9.0,70,0.00,,,0.00,Wunderground v.1.15,2013-06-04 01:47:00,
2013-06-03 20:53:00,64.0,54.0,29.62,NE,56,5.0,7.0,70,0.00,,,0.00,Wunderground v.1.15,2013-06-04 01:53:00,
2013-06-03 20:58:00,63.8,53.8,29.62,NNE,23,3.0,7.0,70,0.00,,,0.00,Wunderground v.1.15,2013-06-04 01:58:00,
2013-06-03 21:03:00,63.6,53.6,29.62,NW,318,2.0,5.0,70,0.00,,,0.00,Wunderground v.1.15,2013-06-04 02:03:00,
2013-06-03 21:08:00,63.4,53.8,29.63,North,360,0.0,5.0,71,0.00,,,0.00,Wunderground v.1.15,2013-06-04 02:08:00,
2013-06-03 21:13:00,63.2,53.6,29.63,NE,45,1.0,3.0,71,0.00,,,0.00,Wunderground v.1.15,2013-06-04 02:13:00,
2013-06-03 21:18:00,62.9,53.7,29.63,North,8,4.0,4.0,72,0.00,,,0.00,Wunderground v.1.15,2013-06-04 02:18:00,
2013-06-03 21:23:00,62.8,53.6,29.63,ENE,62,1.0,5.0,72,0.00,,,0.00,Wunderground v.1.15,2013-06-04 02:23:00,
2013-06-03 21:28:00,62.6,53.8,29.63,NNW,331,0.0,5.0,73,0.00,,,0.00,Wunderground v.1.15,2013-06-04 02:28:00,
2013-06-03 21:33:00,62.5,53.3,29.63,NNE,19,1.0,4.0,72,0.00,,,0.00,Wunderground v.1.15,2013-06-04 02:33:00,
2013-06-03 21:38:00,62.4,53.6,29.63,North,359,2.0,4.0,73,0.00,,,0.00,Wunderground v.1.15,2013-06-04 02:38:00,
2013-06-03 21:43:00,62.3,53.5,29.63,NE,45,2.0,6.0,73,0.00,,,0.00,Wunderground v.1.15,2013-06-04 02:43:00,
2013-06-03 21:48:00,62.2,53.4,29.64,North,353,2.0,8.0,73,0.00,,,0.00,Wunderground v.1.15,2013-06-04 02:48:00,
2013-06-03 21:53:00,62.1,53.7,29.64,NE,51,4.0,6.0,74,0.00,,,0.00,Wunderground v.1.15,2013-06-04 02:53:00,
2013-06-03 21:58:00,61.8,53.4,29.64,East,82,0.0,6.0,74,0.00,,,0.00,Wunderground v.1.15,2013-06-04 02:58:00,
2013-06-03 22:03:00,61.6,53.2,29.64,NE,51,5.0,6.0,74,0.00,,,0.00,Wunderground v.1.15,2013-06-04 03:03:00,
2013-06-03 22:08:00,61.4,53.4,29.64,ENE,59,2.0,6.0,75,0.00,,,0.00,Wunderground v.1.15,2013-06-04 03:08:00,
2013-06-03 22:13:00,61.2,53.6,29.65,ENE,65,3.0,7.0,76,0.00,,,0.00,Wunderground v.1.15,2013-06-04 03:13:00,
2013-06-03 22:18:00,61.0,53.4,29.65,NNE,19,2.0,7.0,76,0.00,,,0.00,Wunderground v.1.15,2013-06-04 03:18:00,
2013-06-03 22:23:00,60.9,53.3,29.65,NNE,18,4.0,5.0,76,0.00,,,0.00,Wunderground v.1.15,2013-06-04 03:23:00,
2013-06-03 22:28:00,60.7,53.1,29.65,NNW,328,1.0,8.0,76,0.00,,,0.00,Wunderground v.1.15,2013-06-04 03:28:00,
2013-06-03 22:33:00,60.6,53.3,29.65,ESE,102,1.0,5.0,77,0.00,,,0.00,Wunderground v.1.15,2013-06-04 03:33:00,
2013-06-03 22:38:00,60.5,53.3,29.65,NNW,342,0.0,5.0,77,0.00,,,0.00,Wunderground v.1.15,2013-06-04 03:38:00,
2013-06-03 22:43:00,60.4,53.5,29.65,NE,50,3.0,3.0,78,0.00,,,0.00,Wunderground v.1.15,2013-06-04 03:43:00,
2013-06-03 22:48:00,60.3,53.1,29.65,ENE,59,3.0,8.0,77,0.00,,,0.00,Wunderground v.1.15,2013-06-04 03:48:00,
2013-06-03 22:53:00,60.2,53.0,29.65,NNE,26,6.0,7.0,77,0.00,,,0.00,Wunderground v.1.15,2013-06-04 03:53:00,
2013-06-03 22:58:00,60.1,53.2,29.65,ESE,121,1.0,7.0,78,0.00,,,0.00,Wunderground v.1.15,2013-06-04 03:58:00,
2013-06-03 23:01:00,60.0,52.8,29.65,NE,42,4.0,7.0,77,0.00,,,0.00,Wunderground v.1.15,2013-06-04 04:01:00,
2013-06-03 23:06:00,59.9,53.0,29.65,NE,46,3.0,7.0,78,0.00,,,0.00,Wunderground v.1.15,2013-06-04 04:06:00,
2013-06-03 23:11:00,59.7,52.8,29.65,NE,37,6.0,6.0,78,0.00,,,0.00,Wunderground v.1.15,2013-06-04 04:11:00,
2013-06-03 23:17:00,59.6,53.1,29.65,ENE,57,2.0,7.0,79,0.00,,,0.00,Wunderground v.1.15,2013-06-04 04:17:00,
2013-06-03 23:22:00,59.4,52.9,29.66,NE,56,3.0,4.0,79,0.00,,,0.00,Wunderground v.1.15,2013-06-04 04:22:00,
2013-06-03 23:27:00,59.3,52.8,29.66,NE,49,2.0,7.0,79,0.00,,,0.00,Wunderground v.1.15,2013-06-04 04:27:00,
2013-06-03 23:32:00,59.3,53.1,29.66,NE,40,3.0,4.0,80,0.00,,,0.00,Wunderground v.1.15,2013-06-04 04:32:00,
2013-06-03 23:37:00,59.1,52.9,29.66,NE,41,1.0,4.0,80,0.00,,,0.00,Wunderground v.1.15,2013-06-04 04:37:00,
2013-06-03 23:42:00,59.0,52.8,29.66,NNE,26,1.0,3.0,80,0.00,,,0.00,Wunderground v.1.15,2013-06-04 04:42:00,
2013-06-03 23:47:00,58.9,52.7,29.66,NE,39,2.0,5.0,80,0.00,,,0.00,Wunderground v.1.15,2013-06-04 04:47:00,
2013-06-03 23:52:00,58.7,52.9,29.66,NNE,29,0.0,2.0,81,0.00,,,0.00,Wunderground v.1.15,2013-06-04 04:52:00,
2013-06-03 23:57:00,58.6,52.8,29.66,ESE,102,0.0,3.0,81,0.00,,,0.00,Wunderground v.1.15,2013-06-04 04:57:00,